Wind_Speed
24 23 22 21 21 20 19 18 17 17 18 19 19 17 16 17 15 14 14 13 12 13 14 16 16 15 15 14 14 15 15 15 15 14 13 13 12 12 11 9 7 6 4 4 3 4 4 4 3 2 2 1 1 1 2 3 3 3 4 5 6 6 6 6 6 6 5 5 6 5 4 4 3 2 1 1 1 2 3 4 5 6 7 8 9
24 24 24 24 24 24 23 21 20 19 19 19 19 18 17 18 18 17 16 15 13 13 14 16 16 16 16 15 15 15 15 15 15 15 14 13 13 12 11 9 8 6 5 4 4 4 5 5 4 3 2 1 1 1 2 2 2 3 4 5 6 5 5 6 6 6 5 5 5 5 4 3 2 1 0 0 0 1 3 4 5 6 7 7 8
25 25 25 26 26 26 26 25 24 22 21 20 20 19 18 18 20 21 20 17 15 13 14 16 17 17 17 16 16 15 15 15 15 15 14 14 13 13 11 9 8 7 6 5 5 5 5 5 5 4 3 2 0 1 1 1 2 3 5 5 5 5 5 5 6 6 5 5 4 4 4 2 2 1 1 0 1 2 3 4 5 6 7 7 8
25 25 24 25 26 26 26 26 25 24 24 22 21 20 19 19 21 23 23 20 16 15 15 16 17 18 17 17 17 16 16 16 15 15 15 14 14 13 11 10 9 8 7 6 6 5 6 6 5 4 3 2 1 1 1 1 1 2 4 5 5 4 4 5 6 6 6 5 4 3 3 3 2 1 1 1 2 3 4 5 5 6 6 7 8
25 25 24 24 25 25 25 25 25 24 24 23 22 20 20 20 21 23 23 22 18 16 17 17 18 18 18 17 17 17 17 16 16 16 15 15 14 13 11 10 9 8 8 7 6 6 6 6 6 5 4 3 2 2 2 2 1 2 4 5 5 4 4 5 5 5 5 5 4 3 3 3 2 2 2 2 3 4 5 5 5 6 7 7 8
26 26 25 24 24 24 25 25 25 25 24 23 23 22 21 21 20 20 21 24 21 19 18 19 19 19 19 18 18 19 18 18 17 16 16 15 14 13 12 11 9 9 8 8 7 7 6 6 7 6 5 4 4 3 3 3 2 2 3 5 4 4 4 4 5 5 5 5 4 4 3 3 3 3 3 3 4 6 6 6 6 6 7 8 8
27 27 27 26 25 25 25 26 26 26 25 25 24 23 23 22 22 20 20 24 25 22 20 19 20 21 20 20 19 19 19 18 17 17 17 16 14 13 12 11 10 10 9 9 8 7 7 7 7 7 6 5 5 4 4 3 3 2 4 4 5 4 4 4 4 4 4 4 4 4 3 3 3 4 4 4 5 7 7 7 7 7 8 8 8
28 28 28 28 28 27 27 27 27 27 27 26 25 24 24 23 24 23 22 24 27 26 24 21 20 21 21 21 20 20 19 18 18 18 18 17 15 14 13 12 11 11 10 9 8 7 7 7 7 7 7 6 5 5 4 4 3 3 3 4 4 4 4 4 4 4 4 4 5 5 4 3 3 4 4 5 6 7 7 7 8 8 8 9 10
30 30 30 30 30 30 29 29 29 29 29 28 27 26 25 24 23 24 24 25 27 28 28 25 21 20 21 21 20 20 19 18 18 18 18 17 15 15 14 13 12 12 11 10 9 8 7 7 8 8 8 7 6 6 5 4 4 3 3 4 4 3 3 3 3 3 4 4 5 5 4 3 3 3 4 5 6 6 7 7 8 8 9 10 11
32 32 31 31 31 32 32 31 30 30 29 29 29 28 26 24 24 24 24 25 28 28 29 29 25 21 21 21 20 19 19 19 19 19 18 16 15 15 14 13 13 12 11 10 9 8 8 8 8 8 8 8 7 6 6 5 5 4 4 4 4 3 2 2 2 3 3 4 4 5 5 4 3 3 3 5 6 6 6 7 8 9 10 11 12
34 34 33 32 32 33 33 33 32 31 30 29 29 29 27 26 25 24 24 25 28 29 30 32 28 24 22 22 21 20 19 19 19 18 17 16 15 15 14 13 13 12 11 11 10 9 9 8 9 9 8 8 8 7 7 6 6 5 4 4 4 3 2 2 1 2 3 3 4 5 5 5 4 4 4 5 5 6 6 7 8 9 10 12 13
35 35 34 33 32 32 33 34 33 32 32 30 29 28 28 27 26 25 24 26 29 31 32 34 31 26 23 22 21 21 20 19 18 17 17 16 16 15 14 13 13 12 11 11 10 10 9 9 9 9 9 9 9 8 8 7 6 5 4 4 4 3 3 2 2 1 2 3 4 4 5 5 5 4 4 5 5 6 6 6 7 9 10 12 13
35 35 34 33 33 33 33 33 32 32 32 31 29 28 27 28 26 25 26 26 29 32 34 35 32 26 24 23 22 21 21 19 18 17 17 16 16 15 14 13 12 12 11 11 11 10 10 9 10 10 10 10 9 9 8 8 7 6 5 5 5 4 3 3 2 2 2 2 3 4 4 5 5 5 5 5 5 5 6 6 7 9 10 11 13
35 34 34 32 32 33 32 31 31 31 31 30 29 28 27 28 28 27 27 28 30 31 34 36 33 27 24 23 23 22 20 19 18 17 17 16 16 15 14 14 13 12 11 11 11 11 10 10 10 10 10 10 10 10 9 8 8 7 6 6 6 5 4 3 3 3 2 2 2 3 4 4 5 5 5 5 5 5 6 6 7 8 10 11 12
34 34 33 32 32 32 31 30 30 30 30 30 29 28 29 29 29 28 28 28 31 32 34 36 33 27 24 24 22 21 20 19 18 18 18 17 16 15 14 14 13 12 12 12 12 12 11 10 10 10 10 10 10 10 9 9 8 8 7 6 6 6 5 4 4 4 3 2 2 3 3 4 4 5 5 5 5 6 6 6 7 9 10 11 12
33 34 33 33 32 30 30 29 29 30 30 30 29 29 31 31 30 29 29 30 30 32 34 36 33 27 26 25 23 21 20 20 19 19 18 18 16 15 14 13 13 13 12 12 13 13 12 10 10 10 10 10 10 11 10 9 9 9 8 8 7 6 6 5 5 5 4 3 3 3 3 4 4 5 5 5 5 6 6 6 7 9 10 10 11
33 34 34 34 32 30 30 30 29 30 30 30 29 30 33 34 32 31 32 33 31 31 33 35 32 28 27 26 25 24 22 21 21 20 19 17 16 15 14 13 12 12 12 12 13 13 13 11 10 10 10 10 11 11 11 10 9 9 10 9 8 7 6 6 6 5 5 5 4 4 3 4 4 5 5 5 6 6 6 6 7 8 9 10 11
32 34 35 35 34 32 32 30 30 30 29 29 29 30 35 37 34 32 34 34 32 32 33 35 33 29 28 27 26 26 24 23 22 21 20 18 16 15 14 13 12 12 12 12 13 14 13 12 11 10 10 10 11 11 12 11 10 10 10 10 9 8 7 6 6 6 6 5 5 5 4 4 5 5 5 5 6 6 6 6 7 8 9 10 11
33 34 34 33 33 33 32 31 31 30 29 30 31 31 34 39 35 34 35 33 31 33 35 36 34 31 29 28 27 27 26 24 23 22 21 19 17 15 14 13 12 12 12 12 13 13 14 13 12 12 11 11 11 11 12 11 10 10 11 10 9 8 8 7 6 6 6 7 6 6 6 6 6 6 6 5 6 6 6 6 7 7 8 9 10
34 33 31 31 31 32 32 30 30 32 31 31 32 32 34 40 38 34 36 33 29 31 36 36 34 32 29 29 28 28 27 25 24 23 21 20 19 16 15 14 13 13 13 12 13 13 14 14 14 13 12 11 11 11 12 12 11 11 11 11 10 9 9 8 7 7 7 7 8 8 8 7 7 7 7 6 7 6 6 6 7 7 7 8 9
34 31 29 29 30 32 31 30 29 30 33 32 32 33 35 43 42 35 35 35 31 30 34 36 35 33 31 30 29 28 27 26 25 23 22 21 20 18 17 16 15 14 13 13 13 13 14 14 14 14 13 13 12 11 11 12 12 11 11 12 11 9 9 9 8 7 8 8 9 9 9 9 9 9 8 8 8 7 6 6 7 7 7 7 8
32 29 27 29 32 32 31 32 32 28 29 33 34 34 35 45 46 38 34 33 33 31 33 35 35 35 33 32 30 29 27 26 25 24 22 21 20 20 19 17 16 15 14 14 14 14 14 14 14 14 14 14 13 12 12 12 13 12 12 12 11 10 9 9 9 8 8 9 10 10 10 10 10 10 10 9 8 8 7 7 7 7 7 7 8
30 28 25 26 31 33 32 33 35 31 27 29 33 32 33 44 45 41 36 33 33 32 32 33 35 35 34 32 31 30 29 27 26 25 23 22 21 21 20 19 18 17 16 15 15 15 15 15 15 14 14 15 15 14 13 13 13 13 13 13 12 11 10 9 9 9 9 9 10 10 10 10 11 11 11 10 9 8 7 7 8 7 7 7 7
31 30 28 25 27 30 32 33 36 36 30 26 29 28 32 41 43 43 39 35 34 33 32 32 33 33 32 31 30 30 29 28 27 26 25 24 23 22 21 20 19 18 18 17 16 16 16 16 16 15 14 15 15 15 14 13 14 14 14 14 13 12 10 10 9 9 9 10 11 11 11 11 11 11 11 11 10 9 8 7 8 8 7 7 7
35 33 32 30 30 28 27 30 32 35 31 27 27 26 32 37 40 42 40 37 35 33 33 31 31 30 29 29 29 29 28 28 27 27 26 25 24 24 23 22 21 20 19 19 18 18 17 17 17 16 15 14 14 15 15 14 14 15 15 15 14 13 11 10 10 9 9 10 11 11 11 11 12 12 12 11 11 10 8 7 7 7 8 8 7
37 37 35 34 34 31 28 30 30 31 30 28 27 25 32 36 38 40 39 37 35 34 34 32 31 30 29 29 29 29 28 28 28 28 28 27 27 26 25 23 23 22 21 20 20 20 19 18 18 17 17 15 14 15 15 16 15 15 15 16 15 14 13 11 10 10 9 10 11 11 12 12 12 12 12 12 11 10 9 8 7 7 7 8 8
38 39 40 37 36 30 26 28 28 28 28 29 28 27 33 36 38 40 40 38 36 35 35 35 34 33 31 31 31 30 29 29 28 29 28 28 28 27 26 25 24 23 22 22 21 21 21 20 20 19 18 16 15 15 16 17 17 17 16 17 17 16 14 12 11 11 10 10 11 11 12 12 13 13 12 12 12 11 10 8 7 7 7 7 8
39 39 40 40 39 31 24 24 24 25 26 27 29 29 33 38 39 41 42 42 41 39 39 39 39 38 36 34 33 32 31 31 30 30 29 28 27 27 26 25 24 24 23 23 22 22 22 22 21 21 20 19 17 16 17 18 18 18 18 18 18 18 16 14 13 12 11 10 10 11 11 12 13 13 13 13 13 12 11 10 8 7 6 7 7
39 39 40 41 43 37 29 27 25 26 25 24 27 29 31 36 39 41 43 44 45 44 43 42 40 40 40 37 34 32 32 31 32 31 30 29 27 27 26 25 24 24 24 24 24 24 24 23 23 22 22 21 20 19 18 19 19 19 19 19 20 19 18 16 14 13 11 11 11 11 11 12 13 13 13 13 13 12 12 11 10 8 7 6 7
39 38 39 41 43 41 33 30 29 29 28 25 28 31 30 34 37 39 42 45 47 47 46 44 41 38 36 35 33 33 33 32 31 31 30 29 28 26 26 25 24 24 24 24 24 25 25 25 24 24 23 23 23 21 20 20 20 20 20 20 20 21 20 18 16 14 13 12 11 11 11 12 13 13 14 14 13 13 13 13 11 9 8 7 7
38 36 36 37 38 38 32 30 31 31 30 28 29 32 32 35 38 39 41 44 46 47 45 42 41 37 32 31 32 32 34 34 33 31 30 30 28 28 27 26 25 25 25 25 25 25 25 25 26 25 25 24 24 24 22 22 22 22 22 22 21 22 22 20 18 16 14 13 12 12 12 12 12 13 14 14 13 13 13 14 13 11 9 8 7
37 35 33 33 35 34 30 30 30 30 31 30 28 31 35 38 40 41 42 42 42 43 42 38 35 36 35 34 35 32 31 33 35 34 32 31 31 30 29 27 27 26 26 25 25 25 25 25 25 26 26 25 25 26 24 23 23 23 23 23 23 23 23 21 19 18 16 15 14 13 12 12 13 14 15 15 14 13 13 14 14 12 10 9 8
35 35 33 32 33 31 29 30 30 30 32 32 29 27 33 40 40 41 42 43 42 40 43 39 34 35 37 37 36 35 32 30 34 37 35 33 33 31 30 29 28 28 27 27 26 26 25 24 24 25 25 25 26 26 26 25 24 24 24 24 24 24 24 23 21 19 18 16 15 14 13 13 13 14 15 15 15 14 14 14 15 13 11 10 9
32 33 33 32 32 30 30 30 31 32 31 32 32 26 27 38 42 41 40 40 40 41 41 38 36 35 35 36 34 33 33 29 31 38 39 37 34 32 31 31 31 30 29 28 27 27 26 25 24 25 25 25 25 26 27 26 26 25 25 26 26 25 25 24 23 21 20 18 17 15 14 13 14 15 15 16 15 15 14 14 15 15 13 11 10
31 30 31 31 30 29 30 32 32 33 32 31 32 25 23 33 39 39 37 33 34 42 40 31 33 36 33 33 31 30 31 27 26 31 35 37 36 35 34 34 34 32 31 29 28 27 26 25 25 25 25 25 26 26 27 27 26 26 26 27 27 26 25 25 24 23 21 20 19 17 15 14 15 15 16 16 16 16 15 14 15 15 15 13 11
31 29 29 31 29 28 29 33 33 31 30 29 30 26 23 27 31 35 36 29 26 35 38 29 30 34 31 31 31 30 30 27 25 26 28 31 33 35 37 36 36 35 32 30 28 28 27 26 26 26 26 27 27 27 27 26 26 27 27 27 27 27 26 26 25 24 23 22 21 19 16 15 15 16 16 17 17 17 16 15 15 16 16 15 13
24 26 27 29 29 28 28 32 33 31 29 25 24 21 20 21 24 29 30 24 21 28 33 32 32 32 32 31 31 30 29 28 27 26 25 26 28 30 33 36 37 37 35 32 30 28 27 27 27 27 27 28 28 28 27 27 26 26 26 27 27 27 27 27 26 25 24 24 22 21 18 16 16 17 18 18 18 18 17 17 16 16 16 16 15
14 18 22 26 27 27 28 30 30 31 33 28 20 15 15 16 17 21 20 16 19 25 30 33 33 32 32 31 29 28 28 28 27 27 27 27 28 28 29 31 34 37 36 34 32 30 29 28 28 28 29 29 30 30 29 28 27 26 26 26 27 27 28 27 26 26 26 25 24 23 21 18 18 18 19 19 19 19 18 18 16 16 17 17 16
12 13 16 21 24 25 27 30 30 29 33 35 30 24 21 20 18 18 19 16 16 19 23 27 29 30 30 28 28 29 29 26 24 27 28 27 28 28 27 28 30 34 35 34 32 32 31 30 29 30 29 29 30 31 30 29 27 26 26 26 27 27 28 27 26 26 26 25 25 24 23 21 20 19 20 21 20 20 19 18 17 17 17 18 18
14 13 14 17 20 22 25 28 29 28 31 35 36 35 32 27 23 21 20 19 19 20 20 21 23 25 25 24 25 27 29 27 24 25 26 26 27 26 27 27 27 29 31 31 32 32 32 31 31 31 30 29 30 31 32 31 28 27 27 27 27 27 27 27 26 26 26 26 26 26 25 23 22 21 21 21 21 20 19 19 18 18 18 18 19
14 14 14 16 18 20 23 26 27 28 30 33 36 37 37 33 29 25 22 20 20 23 23 22 21 22 23 23 22 22 24 25 24 24 26 27 27 26 26 27 26 25 27 29 31 32 32 32 32 32 31 30 30 32 33 33 31 28 28 28 28 28 27 26 26 26 26 27 27 27 26 25 24 22 22 22 22 21 20 20 20 19 19 19 20
15 15 15 16 19 21 24 26 28 29 30 32 36 37 37 36 33 30 28 25 23 22 24 25 24 23 23 22 21 20 19 20 21 22 25 27 27 27 26 27 26 24 26 28 29 30 31 33 34 33 34 33 32 33 34 34 33 31 30 31 30 28 27 27 27 27 27 28 27 28 28 27 26 24 23 22 22 21 21 21 21 21 21 21 21
16 15 15 16 19 21 23 26 28 29 29 31 34 35 35 35 33 33 33 32 30 27 26 26 27 26 25 24 22 20 19 20 21 21 23 24 26 27 28 28 27 25 26 27 27 28 30 33 34 34 35 35 33 34 35 35 35 35 34 32 31 29 29 28 28 29 30 29 28 28 29 29 29 27 25 24 22 21 22 22 22 22 22 22 21
16 14 14 15 17 20 22 24 27 27 27 27 30 31 30 30 29 29 32 34 34 33 31 30 30 29 29 28 26 24 22 22 23 24 24 25 26 27 29 30 29 28 28 28 29 29 30 32 33 33 35 36 36 35 37 37 37 37 37 34 33 32 30 30 30 32 32 30 29 29 30 30 31 29 26 25 24 22 23 24 24 23 23 22 22
16 14 13 13 15 17 19 21 23 24 23 23 25 27 25 24 25 24 26 30 32 33 33 33 33 33 33 32 31 29 27 26 26 27 27 28 28 29 29 30 31 32 31 31 32 31 30 31 31 32 34 36 37 36 37 39 39 38 38 37 36 34 32 33 34 35 34 32 31 30 31 32 33 31 28 27 26 24 24 26 25 24 23 23 23
16 14 13 12 13 14 15 16 18 19 19 19 20 22 22 21 22 22 23 26 28 30 32 33 34 35 36 36 35 34 32 30 30 30 30 30 31 31 31 30 32 34 33 33 33 32 32 32 31 32 33 34 38 38 37 38 40 40 39 38 37 37 36 37 37 37 37 35 34 33 32 33 34 33 30 29 28 26 27 26 24 24 24 24 24
16 14 13 12 12 14 14 15 16 17 17 18 18 19 20 20 20 22 22 24 26 28 30 32 33 35 36 38 39 38 37 36 34 33 33 33 33 33 33 33 33 34 35 35 34 33 34 34 32 33 32 32 37 40 37 36 38 40 40 39 39 40 40 40 39 39 40 39 37 36 34 35 35 34 33 32 30 28 28 27 24 24 25 25 25
17 15 15 14 13 14 16 16 17 17 17 18 18 19 19 20 21 22 23 24 26 27 29 31 33 35 36 38 40 41 41 41 40 38 37 36 36 36 35 35 36 35 36 36 35 35 36 35 35 35 33 31 34 38 39 38 38 38 39 40 41 41 41 41 40 40 42 42 40 38 37 37 37 35 34 33 31 29 29 27 25 24 25 26 26
18 17 16 15 14 15 16 17 17 18 18 18 19 20 21 21 22 23 24 25 26 28 29 30 32 35 37 38 40 42 44 44 44 43 42 41 40 39 39 38 38 38 38 37 36 36 37 36 36 36 36 34 33 37 39 40 40 40 39 40 42 43 43 43 41 42 43 43 41 40 40 40 39 37 36 35 33 30 30 29 26 25 25 26 28
18 18 17 16 16 16 17 19 20 20 21 21 21 22 23 23 24 24 24 25 26 28 29 30 32 34 36 39 41 43 44 46 47 47 46 45 44 43 42 42 41 41 40 40 39 38 38 38 37 38 39 37 36 38 38 39 41 41 40 41 43 43 44 43 42 42 43 43 43 42 42 43 41 38 37 36 34 32 31 30 28 27 27 27 28
19 19 18 18 19 20 21 22 23 24 24 24 24 25 25 26 26 26 25 25 25 27 29 30 32 33 35 37 40 43 45 46 48 49 49 49 49 47 46 46 45 44 42 42 42 41 41 41 40 39 39 39 39 38 37 37 38 40 41 42 44 44 44 44 43 43 43 43 43 44 44 44 42 40 38 37 36 34 33 31 30 29 29 28 29
Wind_Direction
256 256 258 259 260 259 260 259 259 259 260 261 266 271 262 248 243 242 236 229 234 245 252 257 254 246 238 230 224 218 210 205 200 196 193 194 195 196 194 191 186 183 188 204 219 221 212 195 185 173 159 138 99 66 33 22 20 13 9 4 2 3 359 350 343 344 344 331 322 320 319 319 318 316 334 41 31 13 9 0 351 346 346 346 345
258 257 258 260 261 261 262 263 264 265 266 264 265 270 267 253 244 242 240 232 230 240 249 254 254 248 239 230 224 218 211 206 200 194 192 193 194 195 193 191 188 188 194 203 220 229 224 211 199 193 192 194 136 72 42 19 13 6 5 3 359 2 357 346 336 334 337 333 325 319 312 304 297 288 287 70 4 354 1 357 349 347 349 351 351
262 261 261 261 262 263 264 266 267 268 269 269 267 268 267 259 248 242 238 232 226 233 244 249 251 247 240 231 224 219 213 208 201 195 192 191 193 193 191 190 190 192 198 205 216 228 232 225 212 204 209 228 223 69 31 356 359 2 3 4 357 355 356 348 335 328 331 334 328 319 306 290 266 252 262 272 307 342 354 355 350 350 353 357 357
264 264 263 262 262 263 265 267 268 270 271 270 269 268 267 262 256 251 239 229 224 225 235 243 247 244 239 232 225 220 215 210 203 198 193 192 192 190 188 190 193 195 200 205 213 224 233 231 224 215 217 238 250 241 262 288 327 356 2 3 357 353 356 353 339 329 327 329 325 319 308 292 271 265 289 302 318 338 347 353 352 351 354 359 1
262 263 262 262 262 262 263 266 268 269 270 269 268 265 265 261 260 260 243 228 222 220 227 235 242 241 237 230 224 220 215 210 205 201 196 195 193 190 188 189 194 198 203 205 211 220 229 232 231 226 224 239 249 246 248 260 283 340 359 0 358 355 2 359 343 331 324 325 321 319 316 303 297 303 313 321 327 334 342 351 354 355 355 356 359
261 262 262 263 263 263 263 264 267 269 270 269 267 263 261 259 257 261 246 229 221 218 221 227 235 237 234 228 222 218 214 210 205 202 199 197 194 192 190 190 193 199 204 206 209 215 223 229 233 230 228 236 246 248 251 257 276 324 351 358 360 359 5 3 346 332 325 323 317 316 316 312 318 320 323 325 328 334 340 349 354 358 354 350 353
261 262 263 264 264 263 263 265 267 269 271 270 268 263 260 259 256 257 251 235 224 216 216 222 229 231 230 225 219 216 211 207 203 201 200 198 194 192 192 191 193 198 203 205 207 211 218 226 231 230 229 234 245 254 255 259 270 308 342 356 1 2 4 2 347 334 327 323 314 308 309 319 328 323 324 324 327 334 341 348 352 355 353 346 347
261 262 262 263 265 264 264 265 268 270 272 273 271 266 261 261 257 256 255 243 230 220 213 216 225 227 225 222 217 212 208 204 201 200 200 197 192 192 192 192 193 196 201 203 205 208 216 226 232 232 232 235 246 256 259 259 263 290 332 353 359 1 1 357 343 333 325 320 309 302 304 323 329 322 323 321 324 334 341 348 349 350 349 345 343
261 261 261 262 264 265 264 265 267 270 273 275 275 272 266 262 259 256 255 247 235 225 215 212 218 223 223 219 215 210 204 199 199 199 198 194 190 191 191 192 193 195 199 201 203 207 213 225 234 233 234 239 246 255 260 258 256 275 317 343 354 357 356 350 336 328 319 311 304 299 303 319 321 318 321 318 319 330 340 347 347 347 346 345 343
262 261 261 261 262 263 263 263 265 267 270 274 276 276 271 263 258 255 253 247 235 226 217 212 212 217 219 217 213 209 202 198 197 197 195 192 189 191 191 191 193 195 197 198 200 203 210 220 230 231 231 239 246 254 257 254 253 268 307 333 343 343 341 338 329 320 313 303 298 300 306 312 312 308 313 312 313 325 337 344 347 347 347 345 343
262 262 262 261 262 262 262 262 263 264 266 270 274 277 275 267 259 254 251 246 235 223 217 213 210 211 215 213 208 204 202 198 194 192 191 188 188 191 191 192 194 195 196 198 199 201 206 215 225 227 227 235 243 251 255 252 251 262 296 322 330 328 318 316 308 301 306 299 295 302 307 308 304 300 301 304 306 320 334 342 347 347 347 345 343
261 262 261 261 261 262 262 263 263 263 263 266 270 275 277 272 261 255 250 245 236 224 215 211 209 208 212 212 206 200 198 196 191 189 187 185 186 188 190 191 195 197 197 199 201 201 203 210 220 224 224 230 239 249 256 258 253 256 278 307 318 312 296 288 271 259 282 298 297 300 305 307 304 294 293 297 301 318 331 340 345 347 348 346 344
260 260 260 261 261 261 262 263 263 263 262 263 267 270 274 271 262 254 247 242 236 225 215 210 206 205 208 211 207 200 195 191 187 186 186 185 184 184 187 190 194 199 201 203 205 203 201 207 215 220 220 223 234 246 257 264 262 259 270 297 310 300 282 269 250 238 245 281 292 296 299 303 303 296 293 295 299 314 328 336 342 345 347 346 345
258 259 260 261 261 261 261 262 263 262 261 261 264 266 267 266 260 253 244 237 230 222 215 209 204 201 205 207 203 198 192 186 183 183 184 185 183 182 186 189 193 199 204 208 210 208 203 204 212 217 218 219 227 239 252 261 264 261 269 291 302 295 278 264 245 229 226 240 267 284 292 299 301 299 297 294 298 312 325 332 337 342 344 346 347
257 258 260 260 260 260 260 260 260 260 260 259 261 262 261 259 256 251 244 236 226 217 211 208 203 199 202 202 197 193 188 183 181 182 183 183 183 182 186 190 194 199 205 210 215 214 209 204 210 217 218 218 223 233 243 253 259 260 264 280 294 291 277 264 249 230 222 224 237 264 283 295 297 297 296 295 299 310 321 327 332 338 342 346 349
255 256 257 257 257 257 258 258 257 257 256 256 258 257 255 254 251 247 242 236 226 214 208 206 201 197 200 198 193 190 186 183 181 182 184 184 183 182 185 190 196 202 207 213 219 220 216 208 207 217 221 219 221 227 235 243 251 255 258 270 285 288 278 266 253 236 224 223 232 251 274 287 292 294 295 296 300 306 315 322 329 335 340 345 350
253 253 254 254 253 254 254 254 253 253 253 255 259 255 251 250 246 243 240 235 226 216 209 205 199 197 198 196 192 189 186 183 182 182 183 185 184 184 185 188 196 204 211 216 222 226 223 215 209 215 224 223 220 222 228 235 241 245 251 263 279 287 281 271 261 245 233 230 235 249 268 281 288 291 293 295 297 301 309 317 325 333 338 343 349
254 252 251 251 252 253 252 252 252 252 254 255 259 257 247 244 241 238 238 232 223 216 211 205 198 196 197 194 191 188 185 183 182 182 182 184 184 185 187 189 196 204 213 220 225 229 230 224 214 213 222 228 224 222 223 227 235 240 245 255 272 283 281 273 267 255 246 243 245 254 268 281 287 290 289 290 291 295 303 312 321 332 338 342 348
255 252 252 251 253 255 256 255 255 255 254 252 254 257 246 239 235 230 232 231 220 212 210 206 198 195 195 193 191 188 185 183 183 183 182 183 184 186 189 191 196 204 212 220 227 232 234 230 222 214 217 227 229 227 225 224 228 235 240 248 263 277 279 273 267 261 256 257 259 264 272 282 287 287 287 285 284 289 299 309 318 328 337 343 349
253 253 254 255 255 255 258 258 261 261 256 255 253 256 249 235 228 223 226 227 219 210 207 206 199 195 194 193 191 189 187 185 184 184 184 184 185 186 190 194 197 204 211 218 226 233 236 235 229 220 214 220 226 228 228 227 226 230 235 242 254 270 279 275 268 262 259 261 265 269 273 280 285 286 286 283 281 284 295 307 314 323 335 344 350
251 253 253 255 253 251 254 253 261 265 259 258 255 259 253 233 223 218 221 222 217 210 205 205 201 196 194 194 192 191 188 187 186 186 187 188 188 189 191 196 199 204 211 217 224 231 237 239 236 228 219 217 221 223 226 229 227 227 230 236 247 262 276 278 272 265 260 260 264 269 272 276 282 285 285 281 278 283 292 302 310 318 331 344 351
247 250 249 250 249 246 247 245 252 261 262 258 255 264 250 226 221 216 215 220 218 213 207 206 205 201 199 197 195 194 192 190 189 188 190 192 194 195 196 199 202 204 211 218 224 230 236 240 240 235 227 220 219 220 222 226 229 227 227 231 241 254 269 278 277 271 264 260 260 265 269 272 277 283 285 281 277 282 291 300 307 315 328 341 350
246 248 248 250 249 246 243 243 246 251 262 261 256 261 238 220 223 219 212 216 218 217 213 208 207 204 202 202 201 200 198 196 194 193 195 198 199 201 202 203 206 207 211 217 223 229 235 239 241 238 232 225 221 220 220 223 227 228 226 226 233 245 261 272 276 273 267 262 260 261 265 268 272 279 282 280 277 280 288 298 306 314 325 337 348
250 250 252 256 257 253 246 245 248 249 257 258 255 250 223 216 224 223 216 215 217 219 217 214 211 207 203 203 204 204 202 200 199 200 201 203 205 207 207 209 210 211 213 217 222 228 233 238 241 240 235 230 225 223 222 222 224 228 228 226 226 234 249 263 271 272 268 264 262 261 263 265 268 274 278 279 278 278 283 292 303 312 321 331 342
251 250 252 255 258 257 248 248 252 252 252 248 250 238 214 213 221 223 220 217 218 219 220 219 217 212 207 206 208 209 208 207 206 207 208 209 211 213 214 213 215 215 216 218 222 226 231 236 240 242 239 234 228 226 226 224 224 226 229 229 227 227 238 254 265 269 269 267 265 264 265 267 269 272 275 277 276 275 277 285 297 308 317 326 335
251 252 253 254 254 251 249 252 254 253 249 243 242 225 208 210 217 222 222 221 222 222 223 223 221 219 214 212 212 214 215 215 214 215 216 217 217 219 218 218 218 219 220 220 223 227 230 235 239 243 243 238 232 228 228 228 225 225 227 230 230 227 232 246 258 265 267 269 269 269 269 269 272 273 275 276 274 272 272 277 288 302 313 322 330
250 253 254 254 251 251 254 253 251 252 251 244 238 222 210 211 215 220 221 222 224 226 228 226 223 221 217 215 215 216 218 219 221 222 223 223 224 224 224 223 223 223 224 225 226 229 232 235 239 243 245 243 237 231 229 230 228 225 225 228 231 229 229 238 251 260 265 268 271 272 272 271 272 272 274 274 273 270 268 270 278 291 304 315 324
249 250 252 251 246 251 269 267 252 250 250 243 238 228 215 213 214 217 220 221 221 222 227 228 227 224 220 217 215 216 218 220 222 224 226 227 228 228 229 228 227 227 227 228 230 232 235 237 241 245 247 246 242 236 232 232 231 228 225 225 228 229 227 232 243 254 261 266 269 272 274 272 270 270 271 272 272 271 268 266 268 278 292 305 316
251 251 253 252 247 249 267 276 261 249 250 243 233 226 221 218 216 216 219 223 222 220 221 224 226 225 222 218 217 218 218 220 222 224 226 227 230 230 232 232 230 231 230 230 232 234 236 238 243 248 251 251 247 242 236 235 234 231 228 226 226 227 226 228 236 247 255 262 266 269 272 272 270 267 268 269 270 271 270 267 265 270 280 292 305
254 254 254 256 254 253 260 269 263 250 253 254 236 227 228 227 222 220 220 222 223 222 220 221 222 223 222 220 220 222 222 223 223 224 226 226 229 231 232 234 234 236 236 236 236 236 238 239 242 247 253 254 251 246 240 238 237 234 230 227 227 227 225 225 231 241 249 256 262 266 268 271 270 267 265 266 268 270 271 269 266 268 273 282 293
256 256 256 256 257 256 256 260 261 253 254 261 247 235 234 231 225 222 222 221 220 221 220 219 221 222 221 219 220 222 224 226 226 226 226 227 227 229 231 232 233 235 238 240 241 242 242 242 243 245 250 254 253 249 245 241 240 237 233 229 228 228 226 224 227 235 244 251 257 262 265 269 270 267 264 263 264 267 268 268 266 265 268 274 284
257 257 257 257 256 255 250 251 257 253 252 258 252 240 235 230 224 222 225 223 220 220 216 214 217 217 217 217 218 220 220 222 226 227 227 229 229 229 230 230 230 232 235 238 242 245 247 247 248 248 249 252 253 250 247 244 242 240 236 232 230 229 228 226 226 231 239 247 254 259 263 267 268 268 265 262 261 262 264 266 264 262 262 267 274
255 254 256 257 259 257 249 248 252 249 251 253 251 246 236 229 222 220 225 223 220 217 211 214 215 211 212 213 213 215 212 213 220 225 227 228 228 229 230 231 231 231 232 234 238 243 246 248 250 252 253 253 252 250 247 245 243 241 237 233 231 229 229 228 228 230 235 242 249 255 260 265 268 267 266 263 260 259 260 264 264 261 257 260 266
250 250 252 255 258 259 250 248 250 248 251 252 249 250 239 229 222 219 221 219 220 216 212 219 218 211 211 210 209 210 209 208 215 222 226 227 228 229 230 231 233 232 231 232 234 238 243 246 248 250 253 254 253 250 247 245 243 240 236 233 231 229 228 229 229 231 234 239 245 251 256 263 267 267 266 264 261 257 256 260 263 260 255 253 257
247 247 249 252 255 258 252 248 250 250 254 252 244 241 231 225 222 218 215 213 218 217 217 223 215 211 213 212 216 218 216 216 216 219 224 228 230 230 231 232 234 234 232 231 232 234 239 243 246 248 250 251 252 249 247 245 243 239 235 232 231 230 228 228 229 231 233 237 242 247 251 258 264 266 266 263 260 256 254 254 257 258 254 250 250
246 247 249 252 252 255 253 251 254 254 252 240 227 224 219 219 219 214 212 217 221 216 217 220 211 213 215 215 222 224 223 227 225 220 221 226 230 233 235 236 237 236 234 232 232 233 236 241 245 248 249 249 249 247 246 245 242 239 236 232 231 230 229 228 228 230 233 236 240 244 247 253 260 264 264 261 257 255 252 250 251 253 253 250 248
245 247 250 253 254 252 250 253 257 256 248 228 211 215 220 220 217 210 212 220 216 209 212 215 213 214 215 216 221 221 223 226 227 227 225 227 231 234 238 239 240 239 236 233 232 233 235 239 245 248 248 247 246 245 243 243 241 238 236 234 232 231 231 230 229 230 232 235 239 243 245 248 255 260 261 259 256 253 250 249 247 248 249 250 249
255 251 249 253 257 255 251 254 260 258 250 242 230 235 248 247 235 223 224 224 207 203 207 212 214 213 213 217 218 218 219 222 225 228 228 229 231 234 239 241 241 239 237 235 232 234 235 236 242 248 248 246 244 243 241 241 240 237 235 235 235 234 233 232 231 231 231 235 239 242 245 247 252 257 259 258 255 252 250 249 247 246 246 247 248
279 268 258 257 258 259 256 258 267 266 259 256 252 255 269 277 270 254 251 250 232 216 210 210 211 210 212 215 215 216 219 223 224 223 224 227 229 233 239 241 241 238 237 237 235 236 238 236 238 243 246 246 245 243 240 239 238 236 234 235 236 236 235 234 234 233 233 236 239 242 245 247 251 256 259 259 256 253 251 250 249 246 245 245 247
291 286 276 267 263 262 260 261 269 274 269 267 265 265 270 277 279 274 267 263 255 246 236 226 221 217 216 217 217 219 224 227 227 224 222 224 228 236 240 240 242 239 236 238 239 239 241 238 237 239 242 245 245 243 241 238 236 234 233 234 237 237 236 236 236 236 237 238 240 243 246 248 251 256 259 260 258 255 253 251 250 247 244 244 245
290 290 284 278 275 272 269 268 272 278 277 275 277 277 277 278 277 275 275 272 263 255 250 246 240 234 228 225 224 226 230 233 235 232 228 228 232 239 241 238 241 240 234 235 237 239 241 240 239 238 239 242 242 242 241 239 235 233 232 232 235 236 236 237 239 239 239 240 242 244 246 248 251 255 259 261 260 257 255 252 250 248 245 243 244
280 283 284 282 283 281 279 277 278 282 284 283 284 285 284 284 279 274 274 276 274 265 257 253 250 245 239 235 233 234 239 243 247 246 240 240 241 242 240 237 241 242 236 234 235 239 240 240 241 240 238 239 240 240 239 239 237 233 231 231 232 234 235 236 238 240 241 241 243 245 247 249 250 253 256 259 260 258 256 252 249 247 247 244 243
271 275 277 278 280 280 280 281 282 284 286 286 286 288 288 288 285 279 275 276 278 276 271 264 259 254 250 249 247 247 251 254 257 258 254 253 252 249 245 241 244 247 241 236 235 238 240 241 242 242 240 238 239 240 238 238 238 235 234 233 233 233 234 236 238 240 241 241 243 245 247 249 251 251 253 257 259 258 254 251 248 247 247 247 246
265 267 266 267 270 275 278 279 282 284 285 284 284 287 289 289 289 284 278 277 277 277 277 275 270 266 261 259 259 259 261 263 262 260 260 259 257 255 252 248 248 247 242 240 240 241 242 244 244 244 243 239 238 239 238 235 236 237 237 236 236 235 235 237 239 240 241 241 242 245 247 249 251 251 252 255 257 256 254 250 247 247 247 248 247
262 261 259 261 265 271 275 277 279 282 283 282 281 284 287 287 287 284 280 277 276 275 274 275 275 273 269 266 265 263 263 265 265 264 262 260 259 257 256 254 252 248 244 246 249 246 244 245 246 247 246 242 238 238 238 235 234 236 237 238 240 239 239 239 239 240 241 241 241 243 246 248 251 251 251 253 255 255 255 252 249 247 248 248 247
265 264 263 264 267 270 273 274 276 278 280 280 278 279 282 283 282 279 276 274 273 271 270 271 272 272 272 270 268 267 265 264 265 265 265 263 261 259 257 255 254 253 252 251 249 246 246 247 247 248 249 245 240 237 238 237 235 235 236 237 240 242 241 241 242 243 243 242 241 242 245 247 250 251 250 251 253 254 255 256 253 249 249 249 248
274 275 276 273 270 269 268 267 269 271 273 275 276 277 279 279 278 276 273 271 269 268 266 266 267 267 269 270 270 269 267 266 264 264 265 265 263 261 258 256 254 254 256 255 251 248 249 249 246 246 248 247 241 237 237 238 238 238 237 236 238 241 242 243 244 245 245 244 243 243 244 246 248 249 250 250 251 252 255 259 258 253 251 251 250
281 282 282 277 270 264 262 262 263 265 268 270 273 274 276 276 276 275 273 272 270 267 264 262 261 262 263 266 268 269 269 267 265 264 264 264 263 263 261 258 255 253 253 256 257 254 251 248 246 245 244 244 242 239 238 240 241 240 240 239 238 239 241 243 244 246 247 246 244 243 243 244 246 247 248 249 250 251 254 258 259 256 253 253 252
280 280 276 270 262 257 257 259 261 264 266 267 269 271 272 273 274 273 272 270 269 268 265 262 259 258 259 260 262 264 266 267 266 265 263 263 263 262 262 261 259 256 254 254 255 255 254 250 247 246 245 243 242 242 241 242 243 242 241 242 240 239 241 242 244 246 248 248 244 243 242 242 244 245 246 248 249 250 251 255 257 256 256 255 254
277 275 273 269 264 260 260 261 263 265 267 268 269 271 272 274 274 273 272 269 267 266 265 264 261 259 257 257 257 258 260 262 264 264 263 262 262 261 261 261 260 259 257 255 253 253 255 254 250 248 248 246 245 245 245 245 245 244 243 244 243 242 241 241 243 246 249 249 245 242 242 242 241 243 244 246 247 248 249 252 253 255 256 257 256
277 278 280 280 276 270 267 265 265 266 267 269 271 273 274 276 276 276 274 271 268 266 265 265 264 262 260 257 256 256 256 257 259 260 261 261 261 260 260 260 260 260 258 256 254 252 253 255 253 251 250 248 247 247 247 247 247 246 245 246 246 245 244 242 241 243 248 250 246 242 242 242 241 241 243 244 245 246 247 250 252 254 255 256 257
Height
5862 5863 5863 5863 5863 5863 5863 5864 5864 5864 5865 5864 5865 5865 5865 5867 5867 5867 5867 5866 5867 5868 5869 5869 5870 5871 5871 5870 5870 5870 5870 5870 5869 5869 5869 5869 5869 5869 5869 5869 5870 5870 5871 5871 5871 5872 5872 5872 5872 5872 5872 5872 5872 5872 5872 5871 5871 5871 5871 5871 5871 5871 5870 5870 5870 5870 5869 5869 5869 5868 5868 5867 5867 5867 5867 5867 5867 5866 5866 5866 5865 5865 5864 5864 5863
5860 5861 5861 5861 5861 5861 5861 5862 5862 5862 5862 5863 5863 5863 5863 5864 5865 5865 5866 5865 5865 5866 5867 5868 5868 5869 5869 5869 5869 5869 5869 5869 5868 5868 5868 5868 5868 5868 5868 5868 5869 5869 5870 5870 5871 5871 5872 5872 5872 5872 5872 5872 5872 5871 5871 5871 5871 5871 5871 5871 5871 5870 5870 5870 5870 5870 5869 5869 5869 5868 5868 5868 5868 5867 5867 5867 5867 5866 5866 5866 5865 5865 5864 5864 5863
5858 5858 5859 5859 5859 5859 5859 5859 5860 5860 5860 5861 5861 5861 5861 5861 5862 5863 5863 5864 5864 5864 5865 5866 5866 5867 5868 5868 5868 5868 5868 5867 5867 5867 5867 5867 5867 5868 5867 5868 5868 5868 5869 5869 5870 5871 5871 5872 5872 5872 5872 5872 5871 5871 5871 5871 5871 5871 5871 5870 5870 5870 5870 5870 5870 5870 5869 5869 5868 5868 5868 5868 5868 5868 5867 5867 5867 5867 5866 5866 5865 5865 5864 5863 5863
5856 5856 5856 5856 5857 5857 5857 5857 5857 5858 5858 5858 5859 5859 5859 5859 5859 5859 5860 5861 5861 5862 5863 5864 5865 5865 5866 5866 5866 5866 5866 5866 5866 5866 5866 5866 5866 5866 5866 5867 5867 5867 5868 5869 5869 5870 5871 5871 5871 5872 5872 5872 5871 5871 5871 5871 5871 5871 5871 5870 5870 5870 5870 5869 5869 5869 5869 5869 5868 5868 5868 5868 5868 5868 5867 5867 5867 5867 5866 5865 5865 5864 5864 5863 5862
5854 5854 5854 5854 5855 5855 5855 5855 5855 5856 5856 5856 5856 5856 5856 5856 5856 5856 5858 5859 5859 5860 5861 5862 5863 5864 5864 5865 5865 5865 5865 5865 5865 5865 5865 5865 5865 5865 5865 5866 5866 5867 5867 5868 5869 5869 5870 5871 5871 5871 5871 5871 5871 5871 5871 5871 5871 5871 5870 5870 5870 5870 5869 5869 5869 5869 5869 5869 5868 5868 5868 5868 5868 5868 5868 5867 5867 5867 5866 5865 5865 5864 5864 5863 5862
5852 5851 5852 5852 5852 5853 5853 5853 5853 5854 5854 5854 5854 5854 5854 5854 5854 5854 5855 5857 5857 5857 5858 5860 5861 5862 5862 5863 5863 5864 5864 5863 5863 5863 5864 5864 5864 5864 5864 5865 5865 5866 5866 5867 5868 5869 5870 5870 5871 5871 5871 5871 5871 5871 5871 5871 5871 5870 5870 5870 5869 5869 5869 5868 5869 5869 5869 5868 5868 5868 5868 5868 5868 5868 5868 5867 5867 5867 5866 5865 5864 5864 5863 5863 5862
5849 5849 5850 5850 5850 5851 5851 5851 5851 5851 5852 5852 5852 5852 5852 5852 5852 5851 5853 5854 5855 5855 5856 5858 5859 5860 5861 5861 5862 5862 5862 5862 5862 5862 5862 5862 5862 5863 5863 5864 5864 5865 5865 5866 5867 5868 5869 5870 5870 5870 5871 5871 5871 5871 5871 5871 5871 5870 5870 5869 5869 5868 5868 5868 5868 5868 5868 5868 5868 5868 5868 5868 5868 5868 5868 5868 5867 5867 5866 5865 5864 5864 5863 5863 5862
5847 5847 5847 5848 5848 5849 5849 5849 5849 5849 5849 5850 5850 5850 5850 5850 5850 5850 5850 5851 5852 5853 5854 5855 5857 5858 5859 5859 5860 5860 5860 5860 5860 5861 5861 5861 5861 5862 5862 5863 5863 5864 5864 5865 5866 5867 5868 5869 5869 5869 5870 5870 5871 5871 5871 5870 5870 5870 5870 5869 5868 5868 5867 5867 5868 5868 5868 5868 5868 5868 5868 5868 5868 5868 5868 5868 5867 5867 5866 5865 5864 5864 5863 5863 5862
5844 5845 5845 5846 5846 5846 5846 5847 5847 5847 5847 5847 5847 5848 5848 5848 5848 5848 5848 5848 5849 5851 5852 5853 5854 5856 5857 5857 5858 5858 5859 5859 5859 5859 5860 5860 5860 5861 5861 5862 5862 5862 5863 5864 5865 5866 5867 5868 5868 5869 5869 5870 5870 5870 5870 5870 5870 5870 5869 5869 5868 5867 5867 5867 5867 5867 5867 5868 5868 5868 5868 5868 5867 5867 5868 5868 5867 5867 5866 5865 5864 5864 5863 5862 5862
5841 5842 5842 5843 5843 5844 5844 5844 5844 5844 5845 5845 5845 5846 5846 5846 5845 5845 5846 5846 5846 5847 5850 5852 5852 5854 5855 5855 5856 5857 5858 5858 5858 5858 5858 5859 5859 5860 5861 5861 5861 5862 5862 5863 5864 5865 5866 5867 5867 5868 5868 5869 5869 5870 5870 5870 5870 5869 5869 5868 5868 5867 5867 5867 5867 5867 5867 5867 5868 5868 5868 5868 5867 5867 5867 5867 5867 5866 5865 5865 5864 5864 5863 5862 5861
5838 5839 5839 5841 5841 5841 5841 5841 5842 5842 5842 5842 5843 5843 5843 5844 5844 5843 5843 5844 5844 5845 5847 5850 5851 5852 5853 5854 5854 5855 5857 5857 5856 5856 5857 5857 5858 5859 5860 5860 5860 5861 5862 5862 5863 5864 5865 5866 5866 5867 5867 5868 5868 5869 5869 5869 5869 5869 5869 5868 5868 5867 5867 5866 5866 5866 5867 5867 5867 5867 5867 5867 5867 5867 5867 5867 5866 5866 5865 5864 5863 5863 5862 5862 5861
5835 5835 5836 5838 5839 5839 5839 5839 5839 5840 5840 5840 5841 5841 5841 5841 5842 5841 5841 5842 5842 5842 5844 5847 5848 5849 5851 5853 5853 5853 5855 5855 5855 5855 5855 5856 5857 5858 5858 5859 5860 5860 5860 5861 5862 5863 5864 5865 5865 5866 5867 5867 5868 5868 5868 5869 5869 5869 5869 5868 5868 5867 5867 5866 5866 5866 5866 5866 5867 5867 5867 5867 5867 5867 5866 5866 5866 5865 5864 5863 5863 5862 5862 5861 5861
5832 5832 5833 5835 5836 5836 5836 5837 5837 5837 5837 5838 5838 5838 5839 5839 5840 5840 5839 5839 5840 5841 5842 5844 5846 5847 5849 5851 5852 5852 5853 5853 5853 5853 5854 5854 5855 5856 5857 5857 5858 5859 5859 5860 5861 5862 5863 5864 5864 5865 5866 5866 5867 5867 5867 5868 5868 5868 5868 5868 5868 5867 5867 5866 5866 5865 5865 5866 5866 5866 5866 5866 5866 5866 5866 5866 5865 5864 5864 5863 5862 5862 5861 5861 5860
5829 5830 5831 5832 5833 5833 5834 5834 5835 5834 5835 5835 5835 5835 5836 5837 5837 5838 5837 5837 5838 5839 5840 5842 5843 5844 5847 5849 5850 5850 5851 5851 5851 5852 5852 5852 5853 5854 5855 5856 5856 5857 5858 5859 5859 5861 5862 5863 5863 5864 5864 5865 5866 5866 5867 5867 5868 5868 5868 5868 5868 5867 5867 5866 5865 5865 5865 5865 5865 5865 5866 5866 5866 5866 5865 5865 5865 5864 5863 5862 5862 5861 5861 5860 5860
5826 5827 5828 5829 5830 5830 5831 5832 5832 5832 5832 5833 5833 5833 5833 5834 5835 5836 5836 5835 5836 5837 5838 5840 5841 5842 5845 5846 5847 5848 5848 5849 5849 5850 5850 5851 5851 5852 5853 5853 5854 5855 5856 5857 5858 5859 5861 5862 5862 5862 5863 5864 5865 5866 5866 5867 5867 5868 5868 5868 5868 5867 5867 5866 5865 5865 5865 5864 5865 5865 5865 5865 5865 5865 5865 5864 5864 5863 5862 5862 5861 5861 5860 5860 5859
5824 5824 5825 5826 5826 5827 5828 5828 5829 5830 5830 5830 5831 5831 5831 5831 5832 5834 5834 5833 5833 5835 5836 5838 5839 5840 5842 5843 5844 5845 5846 5847 5848 5848 5848 5849 5849 5850 5851 5852 5852 5853 5854 5855 5856 5857 5859 5860 5861 5861 5861 5862 5863 5864 5865 5866 5866 5867 5867 5868 5868 5867 5867 5866 5865 5865 5864 5864 5864 5864 5864 5864 5864 5864 5864 5864 5863 5863 5862 5861 5861 5860 5860 5859 5859
5820 5821 5821 5821 5822 5823 5824 5824 5826 5826 5827 5828 5829 5829 5829 5828 5829 5831 5832 5831 5831 5832 5834 5835 5837 5838 5840 5841 5841 5842 5843 5844 5845 5846 5847 5847 5847 5848 5849 5850 5851 5852 5853 5854 5854 5855 5857 5858 5860 5860 5860 5861 5862 5863 5864 5864 5865 5866 5867 5867 5867 5867 5866 5866 5865 5865 5864 5864 5863 5863 5863 5863 5863 5863 5863 5863 5863 5862 5862 5861 5860 5860 5860 5859 5858
5816 5816 5816 5817 5818 5819 5820 5821 5822 5823 5825 5826 5826 5827 5827 5826 5827 5829 5829 5829 5829 5830 5832 5833 5834 5836 5837 5838 5839 5839 5841 5842 5843 5844 5845 5845 5846 5846 5848 5849 5850 5851 5852 5852 5853 5854 5855 5857 5858 5859 5859 5860 5861 5861 5862 5863 5864 5865 5866 5866 5867 5866 5866 5865 5865 5865 5865 5864 5863 5863 5863 5863 5863 5863 5862 5862 5862 5862 5861 5860 5860 5859 5859 5859 5858
5810 5811 5812 5813 5815 5817 5818 5819 5820 5821 5822 5822 5822 5823 5825 5825 5825 5826 5827 5827 5827 5827 5829 5831 5832 5833 5834 5835 5836 5837 5838 5839 5840 5841 5842 5843 5844 5845 5846 5847 5848 5850 5851 5851 5852 5853 5854 5855 5856 5858 5859 5859 5860 5860 5861 5861 5862 5863 5864 5865 5866 5866 5865 5865 5865 5864 5864 5864 5863 5863 5863 5863 5863 5862 5862 5862 5862 5861 5861 5860 5859 5859 5859 5858 5857
5805 5807 5809 5812 5813 5814 5816 5818 5819 5819 5819 5819 5820 5820 5822 5822 5822 5823 5823 5824 5825 5825 5826 5828 5829 5830 5832 5833 5834 5835 5835 5837 5838 5839 5840 5841 5843 5844 5845 5846 5847 5848 5849 5850 5851 5852 5852 5853 5854 5856 5857 5858 5858 5859 5859 5860 5861 5861 5862 5863 5864 5865 5864 5864 5864 5864 5864 5863 5863 5863 5863 5863 5863 5862 5862 5861 5861 5861 5860 5860 5859 5859 5858 5858 5857
5802 5805 5808 5809 5808 5810 5813 5814 5815 5815 5815 5816 5817 5816 5817 5818 5819 5819 5820 5821 5823 5823 5824 5826 5827 5828 5829 5830 5831 5832 5833 5834 5835 5837 5839 5840 5841 5843 5844 5845 5846 5847 5848 5849 5850 5850 5851 5852 5853 5854 5855 5856 5857 5858 5858 5858 5859 5860 5861 5862 5863 5863 5863 5863 5863 5863 5863 5863 5863 5862 5863 5863 5863 5862 5862 5861 5861 5860 5860 5859 5859 5859 5858 5857 5856
5800 5803 5805 5804 5802 5804 5806 5808 5809 5810 5812 5813 5813 5812 5812 5814 5816 5817 5818 5819 5820 5821 5822 5823 5825 5826 5826 5828 5829 5829 5830 5832 5833 5835 5837 5838 5840 5841 5842 5844 5845 5846 5847 5847 5848 5849 5849 5850 5851 5852 5853 5854 5855 5856 5857 5857 5858 5858 5859 5860 5861 5861 5862 5861 5861 5861 5862 5862 5862 5862 5862 5862 5862 5862 5861 5861 5861 5860 5859 5859 5859 5858 5858 5857 5856
5797 5799 5800 5801 5799 5799 5801 5802 5803 5806 5808 5809 5809 5808 5808 5811 5815 5816 5816 5817 5818 5819 5820 5821 5822 5823 5823 5825 5826 5827 5828 5830 5831 5833 5835 5836 5838 5839 5841 5842 5843 5844 5845 5846 5847 5847 5848 5848 5849 5849 5850 5852 5853 5854 5855 5855 5856 5857 5857 5858 5859 5860 5860 5860 5860 5860 5861 5861 5861 5861 5861 5861 5861 5861 5861 5861 5860 5860 5859 5859 5858 5858 5858 5857 5856
5795 5796 5796 5797 5798 5798 5799 5800 5800 5802 5805 5806 5805 5805 5806 5810 5814 5815 5815 5816 5816 5817 5818 5819 5819 5820 5821 5823 5824 5825 5827 5828 5829 5830 5832 5834 5836 5838 5839 5840 5842 5843 5843 5844 5845 5846 5846 5846 5847 5847 5848 5849 5851 5852 5853 5853 5854 5855 5855 5856 5857 5858 5859 5859 5859 5859 5859 5860 5860 5860 5860 5860 5861 5861 5861 5860 5860 5859 5859 5858 5858 5858 5857 5856 5856
5792 5793 5793 5794 5796 5797 5798 5799 5798 5799 5802 5803 5801 5801 5803 5807 5811 5813 5813 5814 5815 5815 5816 5817 5818 5819 5820 5822 5824 5825 5826 5826 5827 5828 5830 5832 5834 5836 5837 5839 5840 5841 5841 5842 5844 5844 5845 5845 5845 5845 5845 5847 5849 5850 5851 5852 5852 5853 5853 5854 5855 5856 5857 5858 5858 5858 5858 5858 5859 5859 5859 5859 5860 5860 5860 5860 5859 5859 5858 5858 5858 5858 5857 5856 5855
5789 5789 5789 5791 5792 5793 5795 5796 5796 5796 5798 5800 5798 5797 5798 5802 5806 5808 5810 5811 5813 5814 5815 5816 5817 5817 5818 5820 5822 5823 5824 5825 5826 5827 5828 5830 5832 5833 5835 5837 5838 5839 5840 5841 5842 5843 5844 5844 5844 5843 5843 5845 5846 5848 5849 5850 5850 5851 5851 5852 5853 5854 5855 5856 5856 5857 5857 5857 5857 5858 5858 5858 5858 5858 5859 5859 5859 5858 5858 5857 5857 5857 5857 5856 5855
5786 5786 5786 5788 5788 5788 5790 5791 5792 5793 5794 5796 5796 5795 5794 5797 5800 5803 5806 5808 5809 5811 5813 5813 5814 5814 5815 5816 5817 5819 5821 5823 5825 5826 5828 5829 5830 5832 5834 5835 5836 5837 5838 5839 5840 5841 5842 5843 5843 5842 5842 5843 5844 5846 5847 5848 5848 5849 5849 5850 5851 5852 5853 5854 5855 5855 5855 5855 5855 5856 5856 5857 5857 5857 5857 5858 5858 5858 5857 5857 5856 5856 5856 5856 5855
5783 5783 5783 5783 5784 5785 5786 5787 5789 5789 5790 5792 5793 5794 5793 5793 5795 5798 5801 5803 5803 5805 5807 5808 5809 5810 5810 5811 5813 5815 5818 5820 5822 5824 5826 5828 5829 5831 5832 5833 5834 5835 5836 5837 5839 5840 5841 5842 5842 5842 5842 5842 5842 5843 5845 5846 5846 5847 5847 5848 5849 5850 5851 5852 5853 5854 5854 5854 5854 5854 5855 5855 5855 5856 5856 5857 5857 5857 5857 5856 5856 5856 5855 5855 5855
5778 5779 5779 5779 5781 5783 5784 5785 5786 5785 5786 5789 5791 5792 5791 5791 5791 5793 5796 5797 5798 5798 5799 5801 5805 5806 5807 5809 5811 5813 5816 5818 5820 5822 5824 5826 5827 5829 5830 5831 5832 5833 5834 5835 5836 5838 5839 5840 5841 5841 5841 5841 5841 5842 5843 5844 5844 5845 5846 5846 5847 5848 5849 5850 5851 5852 5852 5852 5852 5853 5853 5853 5854 5854 5855 5856 5856 5856 5856 5856 5855 5855 5855 5855 5854
5774 5776 5776 5776 5778 5780 5782 5784 5784 5784 5784 5787 5788 5789 5789 5789 5789 5790 5790 5792 5793 5793 5794 5797 5800 5803 5806 5809 5812 5813 5815 5817 5818 5820 5822 5824 5825 5826 5828 5829 5830 5831 5832 5833 5835 5836 5837 5838 5839 5839 5840 5840 5840 5840 5841 5842 5843 5843 5844 5845 5845 5846 5847 5847 5849 5850 5851 5851 5851 5851 5852 5852 5852 5853 5854 5854 5855 5855 5855 5855 5855 5854 5854 5854 5854
5771 5772 5773 5774 5775 5777 5780 5783 5782 5782 5782 5783 5784 5785 5786 5785 5785 5785 5785 5786 5788 5789 5792 5794 5797 5802 5807 5809 5810 5811 5813 5815 5816 5818 5819 5821 5822 5823 5825 5826 5827 5828 5830 5831 5833 5834 5836 5836 5836 5837 5838 5839 5839 5839 5839 5840 5841 5842 5843 5843 5844 5844 5845 5846 5847 5848 5849 5849 5850 5850 5850 5850 5851 5851 5852 5852 5853 5853 5854 5854 5854 5854 5853 5853 5853
5768 5770 5771 5771 5771 5773 5778 5781 5781 5781 5780 5780 5780 5781 5781 5780 5780 5781 5781 5784 5786 5787 5789 5791 5794 5799 5803 5805 5805 5807 5808 5809 5812 5814 5816 5817 5818 5820 5821 5822 5823 5824 5826 5828 5830 5832 5833 5834 5834 5835 5835 5836 5837 5837 5837 5838 5839 5840 5841 5842 5843 5843 5844 5844 5845 5846 5847 5847 5848 5848 5849 5849 5849 5850 5850 5851 5851 5852 5852 5852 5852 5852 5852 5852 5852
5766 5767 5768 5769 5769 5771 5775 5777 5778 5778 5778 5777 5777 5777 5776 5776 5777 5779 5779 5781 5783 5784 5787 5789 5791 5793 5795 5797 5799 5801 5801 5802 5806 5809 5811 5813 5814 5816 5817 5818 5819 5821 5822 5824 5826 5828 5830 5831 5832 5833 5833 5834 5834 5834 5834 5835 5836 5837 5839 5840 5841 5842 5842 5842 5843 5844 5845 5846 5846 5847 5847 5848 5848 5849 5849 5849 5850 5850 5850 5851 5851 5851 5851 5851 5851
5762 5763 5765 5766 5767 5768 5771 5773 5774 5775 5775 5774 5774 5774 5773 5773 5775 5776 5777 5779 5781 5783 5785 5787 5789 5791 5793 5794 5795 5796 5796 5796 5798 5803 5806 5809 5810 5812 5814 5815 5816 5817 5819 5821 5823 5824 5826 5828 5829 5830 5831 5831 5832 5832 5832 5833 5834 5835 5836 5837 5838 5839 5840 5841 5841 5842 5843 5844 5844 5845 5845 5846 5847 5847 5847 5848 5848 5848 5849 5849 5849 5850 5850 5850 5850
5758 5760 5762 5764 5765 5766 5768 5770 5771 5772 5772 5771 5771 5771 5770 5770 5772 5774 5775 5778 5780 5781 5783 5784 5786 5789 5792 5793 5794 5795 5795 5794 5795 5798 5802 5805 5807 5808 5810 5811 5813 5814 5816 5818 5820 5821 5822 5824 5825 5826 5827 5829 5830 5830 5830 5831 5832 5832 5833 5834 5835 5837 5838 5838 5839 5840 5841 5842 5843 5843 5843 5844 5845 5845 5846 5846 5846 5846 5847 5847 5848 5848 5848 5848 5848
5755 5758 5760 5761 5763 5764 5765 5766 5767 5769 5769 5768 5768 5768 5767 5767 5769 5772 5773 5775 5777 5778 5780 5782 5783 5786 5788 5791 5792 5794 5795 5795 5795 5795 5797 5800 5803 5805 5807 5808 5810 5811 5813 5815 5816 5818 5819 5821 5822 5823 5824 5825 5827 5828 5828 5829 5830 5830 5831 5832 5833 5834 5835 5836 5837 5838 5839 5840 5841 5841 5841 5842 5843 5843 5844 5844 5844 5844 5845 5845 5845 5846 5847 5847 5847
5752 5755 5757 5758 5760 5762 5763 5763 5763 5765 5766 5765 5764 5764 5765 5765 5766 5769 5771 5773 5774 5775 5777 5779 5781 5783 5785 5787 5788 5790 5792 5793 5795 5795 5795 5797 5799 5801 5804 5806 5807 5808 5810 5812 5813 5815 5816 5817 5819 5820 5821 5822 5823 5824 5825 5826 5827 5828 5829 5830 5831 5832 5832 5833 5834 5836 5837 5838 5838 5839 5839 5839 5840 5841 5842 5842 5842 5842 5842 5843 5843 5844 5845 5845 5845
5750 5752 5754 5755 5757 5759 5761 5761 5760 5761 5762 5762 5762 5762 5763 5764 5764 5766 5768 5770 5771 5773 5775 5777 5779 5780 5782 5784 5785 5787 5788 5788 5790 5793 5794 5795 5796 5798 5800 5802 5804 5805 5807 5809 5811 5811 5813 5814 5816 5817 5818 5820 5820 5821 5822 5823 5824 5826 5827 5828 5829 5830 5830 5831 5832 5833 5834 5835 5836 5837 5837 5837 5838 5839 5839 5840 5840 5840 5840 5841 5841 5842 5843 5843 5844
5749 5751 5752 5753 5755 5756 5758 5759 5758 5759 5759 5759 5760 5761 5762 5764 5764 5765 5766 5768 5770 5771 5773 5775 5776 5778 5780 5781 5783 5784 5784 5785 5787 5789 5790 5791 5793 5796 5798 5799 5800 5802 5804 5806 5808 5809 5809 5811 5812 5813 5815 5817 5818 5819 5820 5821 5822 5823 5825 5826 5827 5827 5828 5829 5830 5831 5832 5833 5834 5835 5835 5835 5836 5837 5837 5837 5838 5838 5838 5839 5840 5840 5841 5842 5842
5749 5750 5751 5752 5753 5754 5756 5756 5757 5757 5758 5757 5758 5758 5760 5762 5764 5764 5765 5767 5769 5770 5772 5773 5775 5776 5777 5779 5780 5781 5782 5783 5785 5786 5787 5789 5791 5793 5795 5795 5796 5798 5800 5802 5805 5806 5806 5808 5809 5810 5812 5814 5816 5817 5817 5818 5819 5820 5822 5823 5824 5824 5825 5827 5828 5829 5829 5830 5831 5833 5833 5834 5834 5835 5835 5835 5836 5836 5837 5837 5838 5838 5839 5840 5840
5748 5749 5749 5750 5751 5751 5753 5754 5755 5755 5756 5756 5756 5756 5757 5759 5762 5763 5764 5766 5768 5769 5771 5772 5773 5774 5775 5777 5779 5779 5780 5781 5782 5784 5785 5785 5788 5790 5791 5791 5792 5794 5795 5797 5799 5801 5803 5805 5806 5808 5809 5811 5812 5813 5814 5815 5817 5818 5819 5820 5821 5822 5824 5825 5825 5826 5826 5827 5829 5830 5831 5832 5832 5832 5833 5834 5834 5834 5835 5835 5836 5836 5837 5838 5838
5746 5747 5748 5748 5748 5749 5750 5751 5752 5753 5754 5754 5753 5754 5755 5756 5759 5761 5762 5763 5766 5768 5769 5771 5772 5773 5773 5775 5776 5777 5778 5779 5781 5782 5783 5784 5785 5786 5787 5788 5789 5791 5792 5793 5794 5796 5799 5801 5802 5804 5805 5807 5808 5809 5810 5812 5814 5816 5816 5816 5817 5820 5821 5822 5822 5823 5823 5824 5826 5827 5828 5829 5829 5830 5831 5831 5832 5832 5833 5833 5834 5834 5835 5835 5836
5744 5745 5745 5746 5746 5746 5747 5748 5749 5750 5751 5751 5751 5751 5752 5753 5755 5758 5759 5760 5762 5764 5766 5768 5769 5770 5771 5772 5773 5774 5775 5777 5778 5780 5782 5782 5783 5783 5784 5785 5787 5789 5790 5790 5790 5792 5795 5797 5798 5799 5801 5803 5804 5805 5806 5808 5811 5812 5812 5813 5815 5817 5818 5819 5820 5820 5820 5821 5823 5824 5825 5826 5827 5827 5828 5829 5830 5830 5830 5831 5831 5832 5833 5833 5834
5742 5743 5743 5744 5744 5744 5745 5745 5746 5747 5748 5749 5749 5748 5749 5750 5752 5754 5756 5757 5759 5760 5762 5764 5765 5766 5768 5769 5770 5771 5772 5774 5775 5777 5779 5780 5781 5781 5782 5783 5784 5784 5786 5786 5786 5788 5791 5793 5795 5796 5797 5799 5800 5801 5802 5803 5806 5808 5810 5811 5812 5814 5815 5817 5817 5816 5817 5819 5820 5821 5822 5823 5824 5825 5826 5826 5827 5828 5828 5828 5829 5830 5830 5831 5831
5741 5741 5742 5742 5742 5742 5742 5743 5743 5744 5745 5746 5747 5747 5747 5748 5749 5750 5752 5754 5755 5757 5758 5759 5761 5762 5764 5765 5766 5768 5769 5771 5772 5774 5776 5777 5778 5778 5779 5780 5780 5780 5781 5783 5783 5784 5786 5788 5791 5793 5793 5795 5797 5797 5797 5798 5801 5803 5806 5808 5809 5811 5813 5813 5813 5813 5814 5816 5817 5818 5819 5820 5821 5823 5824 5824 5825 5825 5825 5825 5826 5827 5828 5828 5829
5739 5740 5740 5740 5740 5740 5740 5741 5741 5742 5743 5743 5744 5744 5744 5745 5746 5747 5749 5750 5751 5753 5754 5755 5757 5758 5760 5761 5762 5764 5765 5767 5769 5770 5772 5773 5774 5774 5776 5777 5777 5777 5778 5779 5781 5782 5783 5784 5787 5789 5790 5791 5792 5792 5793 5795 5797 5798 5801 5804 5806 5807 5808 5809 5809 5810 5811 5812 5814 5815 5816 5817 5818 5820 5821 5822 5822 5823 5823 5823 5824 5825 5826 5826 5826
5737 5737 5737 5738 5738 5738 5739 5739 5740 5740 5741 5741 5741 5742 5742 5742 5743 5744 5745 5746 5747 5748 5750 5751 5752 5754 5755 5756 5757 5759 5760 5762 5764 5766 5768 5769 5769 5770 5771 5773 5774 5775 5775 5776 5777 5779 5780 5781 5782 5783 5785 5787 5788 5788 5789 5792 5793 5794 5796 5799 5801 5802 5803 5804 5806 5807 5808 5809 5810 5811 5813 5813 5814 5816 5818 5819 5819 5820 5821 5821 5823 5823 5824 5824 5824
5734 5734 5735 5735 5736 5737 5737 5737 5738 5738 5739 5739 5739 5739 5739 5740 5740 5741 5741 5742 5743 5744 5745 5747 5748 5749 5750 5752 5753 5754 5755 5757 5759 5761 5763 5764 5765 5766 5767 5768 5770 5771 5772 5773 5775 5776 5777 5777 5777 5778 5780 5783 5784 5784 5785 5788 5789 5790 5792 5794 5795 5797 5798 5799 5801 5803 5803 5805 5806 5808 5809 5809 5810 5812 5814 5815 5817 5818 5818 5819 5820 5821 5821 5821 5821
5732 5732 5733 5733 5734 5735 5735 5735 5735 5736 5736 5737 5737 5737 5737 5737 5737 5738 5738 5738 5739 5739 5740 5741 5743 5744 5745 5746 5748 5749 5750 5752 5754 5756 5758 5759 5760 5761 5762 5763 5765 5767 5769 5771 5772 5772 5773 5774 5774 5774 5775 5777 5780 5781 5782 5784 5785 5786 5788 5789 5791 5792 5793 5794 5796 5798 5799 5801 5803 5804 5805 5805 5806 5808 5810 5812 5814 5815 5816 5816 5817 5818 5819 5819 5819
5730 5730 5730 5731 5732 5733 5733 5733 5733 5733 5734 5734 5735 5735 5735 5735 5735 5735 5735 5735 5735 5736 5736 5736 5737 5739 5740 5741 5742 5744 5745 5747 5748 5750 5752 5753 5755 5756 5758 5759 5760 5761 5764 5766 5768 5769 5769 5770 5771 5771 5771 5773 5775 5777 5778 5780 5780 5782 5784 5785 5786 5788 5789 5790 5792 5793 5794 5796 5798 5799 5800 5800 5801 5803 5805 5807 5809 5811 5812 5813 5814 5815 5815 5816 5816
5728 5728 5728 5729 5729 5730 5730 5730 5731 5731 5731 5732 5732 5732 5733 5732 5732 5732 5732 5732 5732 5732 5732 5732 5733 5733 5734 5735 5737 5738 5740 5741 5743 5744 5745 5747 5749 5751 5752 5754 5755 5757 5759 5761 5763 5765 5766 5766 5767 5767 5767 5769 5771 5773 5774 5775 5776 5778 5780 5780 5781 5783 5785 5786 5787 5788 5789 5792 5794 5795 5795 5795 5797 5799 5801 5803 5805 5807 5809 5810 5811 5812 5812 5812 5813